• In Deutschland
  • Länderverzeichnis
  • Für 7 Tage
  • Wassertemperatur
  • Satellitenkarten
  • Wetterkarte
  • Widgets
  • user-avatar
    Anmelden

    Stündliche Wetter Lankaran

    Heute, 30 Mai, Dienstag

    Zeit Temperatur Niederschläge Wind Luftdruck Luftfeuchtigkeit
    00:00 +10°C° 0 mm 2 m/S 636 mmHg 85%
    01:00 +10°C° 0 mm 2 m/S 636 mmHg 84%
    02:00 +10°C° 0 mm 1 m/S 636 mmHg 83%
    03:00 +10°C° 0 mm 1 m/S 635 mmHg 81%
    04:00 +11°C° 0 mm 1 m/S 636 mmHg 76%
    05:00 +13°C° 0 mm 1 m/S 636 mmHg 71%
    06:00 +15°C° 0 mm 1 m/S 636 mmHg 65%
    07:00 +16°C° 0 mm 2 m/S 637 mmHg 59%
    08:00 +18°C° 0 mm 2 m/S 637 mmHg 53%
    09:00 +20°C° 0 mm 2 m/S 637 mmHg 47%
    10:00 +21°C° 0 mm 3 m/S 637 mmHg 45%
    11:00 +24°C° 0 mm 3 m/S 637 mmHg 42%
    12:00 +25°C° 0 mm 3 m/S 637 mmHg 40%
    13:00 +25°C° 0 mm 3 m/S 636 mmHg 40%
    14:00 +25°C° 0 mm 3 m/S 636 mmHg 41%
    15:00 +25°C° 0 mm 3 m/S 635 mmHg 41%
    16:00 +24°C° 0 mm 3 m/S 635 mmHg 47%
    17:00 +23°C° 0 mm 2 m/S 634 mmHg 52%
    18:00 +21°C° 0 mm 2 m/S 634 mmHg 58%
    19:00 +19°C° 0 mm 2 m/S 634 mmHg 63%
    20:00 +18°C° 0 mm 1 m/S 633 mmHg 69%
    21:00 +15°C° 0 mm 1 m/S 633 mmHg 74%
    22:00 +15°C° 0 mm 1 m/S 633 mmHg 74%
    23:00 +15°C° 0 mm 1 m/S 632 mmHg 74%

    Morgen, 31 Mai, Mittwoch

    Zeit Temperatur Niederschläge Wind Luftdruck Luftfeuchtigkeit
    00:00 +14°C° 0 mm 1 m/S 632 mmHg 74%
    01:00 +14°C° 0 mm 1 m/S 632 mmHg 73%
    02:00 +13°C° 0 mm 1 m/S 632 mmHg 72%
    03:00 +13°C° 0 mm 1 m/S 632 mmHg 71%
    04:00 +15°C° 0 mm 1 m/S 632 mmHg 66%
    05:00 +16°C° 0 mm 1 m/S 633 mmHg 61%
    06:00 +19°C° 0 mm 1 m/S 633 mmHg 56%
    07:00 +21°C° 0 mm 1 m/S 634 mmHg 49%
    08:00 +21°C° 0 mm 2 m/S 634 mmHg 41%
    09:00 +24°C° 0 mm 2 m/S 634 mmHg 34%
    10:00 +25°C° 0 mm 3 m/S 634 mmHg 33%
    11:00 +26°C° 0 mm 3 m/S 634 mmHg 32%
    12:00 +26°C° 0 mm 4 m/S 633 mmHg 31%
    13:00 +26°C° 0 mm 4 m/S 633 mmHg 33%
    14:00 +26°C° 0 mm 4 m/S 632 mmHg 34%
    15:00 +26°C° 0 mm 4 m/S 632 mmHg 35%
    16:00 +25°C° 0 mm 3 m/S 631 mmHg 43%
    17:00 +22°C° 0 mm 3 m/S 631 mmHg 51%
    18:00 +21°C° 0 mm 2 m/S 631 mmHg 59%
    19:00 +19°C° 0 mm 2 m/S 630 mmHg 63%
    20:00 +16°C° 0 mm 2 m/S 630 mmHg 68%
    21:00 +14°C° 0 mm 2 m/S 630 mmHg 73%
    22:00 +14°C° 0 mm 2 m/S 630 mmHg 72%
    23:00 +13°C° 0 mm 2 m/S 630 mmHg 71%

    übermorgen, 1 Juni, Donnerstag

    Zeit Temperatur Niederschläge Wind Luftdruck Luftfeuchtigkeit
    00:00 +13°C° 0 mm 2 m/S 630 mmHg 71%
    01:00 +12°C° 0 mm 2 m/S 630 mmHg 71%
    02:00 +11°C° 0 mm 1 m/S 630 mmHg 72%
    03:00 +11°C° 0 mm 1 m/S 630 mmHg 72%
    04:00 +12°C° 0 mm 1 m/S 630 mmHg 68%
    05:00 +13°C° 0 mm 1 m/S 631 mmHg 65%
    06:00 +15°C° 0 mm 1 m/S 632 mmHg 61%
    07:00 +16°C° 0 mm 2 m/S 632 mmHg 54%
    08:00 +18°C° 0 mm 2 m/S 633 mmHg 46%
    09:00 +20°C° 0 mm 2 m/S 633 mmHg 38%
    10:00 +20°C° 0 mm 3 m/S 633 mmHg 38%
    11:00 +21°C° 0 mm 3 m/S 633 mmHg 38%
    12:00 +22°C° 0 mm 3 m/S 633 mmHg 38%
    13:00 +22°C° 0 mm 4 m/S 632 mmHg 40%
    14:00 +22°C° 0 mm 4 m/S 632 mmHg 42%
    15:00 +22°C° 0 mm 4 m/S 632 mmHg 45%
    16:00 +20°C° 0,1 mm 4 m/S 631 mmHg 52%
    17:00 +19°C° 0,1 mm 3 m/S 631 mmHg 59%
    18:00 +17°C° 0,1 mm 3 m/S 631 mmHg 66%
    19:00 +15°C° 0,1 mm 2 m/S 631 mmHg 72%
    20:00 +14°C° 0,1 mm 2 m/S 631 mmHg 78%
    21:00 +12°C° 0,1 mm 1 m/S 631 mmHg 83%
    22:00 +11°C° 0 mm 1 m/S 631 mmHg 82%
    23:00 +11°C° 0 mm 1 m/S 631 mmHg 82%

    2 Juni, Freitag

    Zeit Temperatur Niederschläge Wind Luftdruck Luftfeuchtigkeit
    00:00 +11°C° 0 mm 1 m/S 631 mmHg 81%
    01:00 +10°C° 0 mm 1 m/S 630 mmHg 81%
    02:00 +10°C° 0 mm 1 m/S 630 mmHg 81%
    03:00 +9°C° 0 mm 1 m/S 630 mmHg 81%
    04:00 +11°C° 0 mm 1 m/S 631 mmHg 78%
    05:00 +12°C° 0 mm 1 m/S 632 mmHg 74%
    06:00 +14°C° 0 mm 1 m/S 632 mmHg 70%
    07:00 +15°C° 0 mm 2 m/S 633 mmHg 64%
    08:00 +16°C° 0 mm 2 m/S 633 mmHg 58%
    09:00 +18°C° 0 mm 2 m/S 634 mmHg 51%
    10:00 +19°C° 0 mm 3 m/S 634 mmHg 49%
    11:00 +19°C° 0 mm 3 m/S 634 mmHg 47%
    12:00 +20°C° 0 mm 3 m/S 634 mmHg 44%
    13:00 +20°C° 0 mm 4 m/S 633 mmHg 46%
    14:00 +20°C° 0 mm 4 m/S 633 mmHg 48%
    15:00 +20°C° 0 mm 4 m/S 633 mmHg 50%
    16:00 +19°C° 0 mm 4 m/S 632 mmHg 57%
    17:00 +18°C° 0 mm 3 m/S 632 mmHg 63%
    18:00 +16°C° 0 mm 3 m/S 632 mmHg 69%
    19:00 +14°C° 0,1 mm 3 m/S 632 mmHg 75%
    20:00 +13°C° 0,1 mm 2 m/S 632 mmHg 80%
    21:00 +12°C° 0,1 mm 2 m/S 632 mmHg 86%
    22:00 +11°C° 0 mm 1 m/S 632 mmHg 86%
    23:00 +11°C° 0 mm 1 m/S 632 mmHg 85%

    3 Juni, Samstag

    Zeit Temperatur Niederschläge Wind Luftdruck Luftfeuchtigkeit
    00:00 +10°C° 0 mm 1 m/S 632 mmHg 85%
    01:00 +10°C° 0 mm 1 m/S 632 mmHg 86%
    02:00 +10°C° 0 mm 1 m/S 632 mmHg 87%
    03:00 +9°C° 0 mm 1 m/S 632 mmHg 87%
    04:00 +10°C° 0 mm 1 m/S 633 mmHg 85%
    05:00 +11°C° 0 mm 1 m/S 634 mmHg 83%
    06:00 +13°C° 0 mm 2 m/S 635 mmHg 81%
    07:00 +14°C° 0 mm 2 m/S 635 mmHg 75%
    08:00 +14°C° 0 mm 3 m/S 636 mmHg 70%
    09:00 +16°C° 0 mm 3 m/S 636 mmHg 64%
    10:00 +15°C° 0,1 mm 4 m/S 636 mmHg 66%
    11:00 +15°C° 0,1 mm 4 m/S 636 mmHg 68%
    12:00 +15°C° 0,1 mm 4 m/S 636 mmHg 71%
    13:00 +15°C° 0,1 mm 4 m/S 636 mmHg 70%
    14:00 +15°C° 0,1 mm 4 m/S 635 mmHg 70%
    15:00 +16°C° 0,1 mm 3 m/S 635 mmHg 70%
    16:00 +14°C° 0 mm 3 m/S 635 mmHg 72%
    17:00 +13°C° 0 mm 3 m/S 635 mmHg 75%
    18:00 +14°C° 0 mm 2 m/S 635 mmHg 77%
    19:00 +13°C° 0 mm 2 m/S 636 mmHg 81%
    20:00 +12°C° 0 mm 2 m/S 636 mmHg 86%
    21:00 +11°C° 0 mm 1 m/S 636 mmHg 90%
    22:00 +10°C° 0 mm 1 m/S 636 mmHg 90%
    23:00 +10°C° 0 mm 1 m/S 635 mmHg 90%

    4 Juni, Sonntag

    Zeit Temperatur Niederschläge Wind Luftdruck Luftfeuchtigkeit
    00:00 +9°C° 0 mm 1 m/S 635 mmHg 89%
    01:00 +9°C° 0 mm 1 m/S 635 mmHg 90%
    02:00 +8°C° 0 mm 1 m/S 635 mmHg 90%
    03:00 +8°C° 0 mm 1 m/S 635 mmHg 91%
    04:00 +9°C° 0 mm 1 m/S 636 mmHg 88%
    05:00 +11°C° 0 mm 1 m/S 636 mmHg 85%
    06:00 +12°C° 0 mm 1 m/S 637 mmHg 82%
    07:00 +13°C° 0 mm 1 m/S 638 mmHg 76%
    08:00 +14°C° 0 mm 2 m/S 638 mmHg 70%
    09:00 +16°C° 0 mm 2 m/S 638 mmHg 64%
    10:00 +17°C° 0 mm 2 m/S 638 mmHg 60%
    11:00 +17°C° 0 mm 3 m/S 638 mmHg 57%
    12:00 +18°C° 0 mm 3 m/S 638 mmHg 53%
    13:00 +18°C° 0 mm 3 m/S 638 mmHg 53%
    14:00 +18°C° 0 mm 3 m/S 638 mmHg 53%
    15:00 +18°C° 0 mm 3 m/S 638 mmHg 53%
    16:00 +18°C° 0 mm 3 m/S 638 mmHg 58%
    17:00 +17°C° 0 mm 3 m/S 637 mmHg 63%
    18:00 +16°C° 0 mm 2 m/S 637 mmHg 68%
    19:00 +14°C° 0 mm 2 m/S 637 mmHg 74%
    20:00 +12°C° 0 mm 2 m/S 637 mmHg 80%
    21:00 +11°C° 0 mm 1 m/S 637 mmHg 86%
    22:00 +10°C° 0 mm 1 m/S 637 mmHg 87%
    23:00 +10°C° 0 mm 1 m/S 637 mmHg 87%
    Mehr zeigen